EST,Max TemperatureF,Mean TemperatureF,Min TemperatureF,Max Dew PointF,MeanDew PointF,Min DewpointF,Max Humidity, Mean Humidity, Min Humidity, Max Sea Level PressureIn, Mean Sea Level PressureIn, Min Sea Level PressureIn, Max VisibilityMiles, Mean VisibilityMiles, Min VisibilityMiles, Max Wind SpeedMPH, Mean Wind SpeedMPH, Max Gust SpeedMPH,PrecipitationIn, CloudCover, Events, WindDirDegrees
2012-11-1,48,44,39,38,36,30,92,73,53,29.81,29.75,29.71,10,7,2,16,7,23,0.02,8,Rain,253
2012-11-2,45,39,33,31,29,27,75,64,53,30.07,29.93,29.81,10,10,10,18,7,23,0.00,6,,300
2012-11-3,46,42,38,33,30,29,79,66,53,30.19,30.13,30.07,10,10,10,9,3,12,0.00,6,,358
2012-11-4,42,37,32,32,29,27,85,70,55,30.17,30.14,30.11,10,10,10,9,3,14,0.00,7,,10
2012-11-5,45,37,29,29,27,24,85,69,53,30.20,30.17,30.14,10,10,10,10,3,14,0.00,5,,16
2012-11-6,49,36,22,28,25,22,88,65,42,30.15,30.04,29.93,10,10,7,9,2,12,0.00,0,,26
2012-11-7,53,41,28,31,26,24,85,61,36,30.09,29.98,29.91,10,10,8,10,3,14,0.00,0,,17
2012-11-8,49,36,22,32,27,21,92,71,49,30.24,30.18,30.10,10,8,5,9,2,15,0.00,2,,293
2012-11-9,56,41,25,36,31,23,92,68,43,30.29,30.22,30.18,10,9,6,12,2,24,0.00,0,,208
2012-11-10,70,54,38,42,38,34,89,61,33,30.24,30.20,30.14,10,10,4,14,6,18,0.10,2,Rain,184
2012-11-11,70,56,41,39,35,33,73,51,28,30.33,30.23,30.14,10,10,10,17,7,28,0.00,0,,170
2012-11-12,63,48,33,54,42,29,96,66,36,30.40,30.16,30.01,10,8,2,21,10,30,0.46,6,Rain,242
2012-11-13,40,34,27,28,25,22,92,71,50,30.55,30.48,30.41,10,10,10,12,3,14,0.00,3,,258
2012-11-14,41,32,22,26,24,20,96,74,51,30.58,30.50,30.41,10,10,7,10,4,17,0.00,0,,42
2012-11-15,48,35,22,29,26,21,96,69,42,30.38,30.35,30.32,10,9,5,6,1,9,0.00,0,,345
2012-11-16,51,38,24,34,29,23,92,70,48,30.51,30.43,30.36,10,8,4,12,2,16,0.00,0,,7
2012-11-17,56,40,24,32,27,23,92,62,32,30.60,30.54,30.50,10,8,2,13,3,17,0.00,0,,53
2012-11-18,58,42,25,28,25,23,85,57,28,30.53,30.47,30.43,10,10,10,8,1,10,0.00,0,,77
2012-11-19,54,40,25,34,29,23,92,69,45,30.41,30.33,30.21,10,10,10,6,0,7,0.00,0,,190
2012-11-20,56,44,31,37,33,30,92,67,41,30.20,30.16,30.10,10,10,8,9,0,9,0.00,4,,193
2012-11-21,60,46,32,38,33,30,92,66,39,30.25,30.21,30.14,10,9,1,8,0,9,0.00,1,,330
2012-11-22,62,46,29,38,33,27,92,66,39,30.26,30.17,30.02,10,9,6,12,4,15,0.00,0,,188
2012-11-23,52,42,31,47,33,18,86,67,48,30.11,29.97,29.88,10,9,2,26,12,37,T,6,Rain,246
2012-11-24,32,31,30,25,21,18,78,71,63,30.16,30.12,30.07,10,9,2,15,9,21,T,8,Snow,275
2012-11-25,43,36,29,24,21,18,78,60,41,30.11,30.02,29.90,10,10,10,16,7,22,0.00,4,,222
2012-11-26,49,39,28,29,26,24,85,64,42,30.22,30.16,30.03,10,10,10,8,1,10,0.00,4,,360
2012-11-27,38,35,31,32,28,23,89,77,64,30.33,30.28,30.22,10,8,4,10,4,15,T,8,Snow,348
2012-11-28,41,32,22,24,20,18,88,66,44,30.41,30.36,30.31,10,9,6,16,5,21,0.00,2,,243
2012-11-29,47,33,18,27,20,16,91,64,37,30.44,30.36,30.29,10,9,5,13,3,16,0.00,0,,187
2012-11-30,57,43,28,33,28,22,78,57,36,30.29,30.24,30.19,10,10,10,16,5,22,0.00,3,,188